Location: Nattheim
(48.6993°N, 10.2428°E)
Time: 22:13:14
(UTC+00:00)

Daily predictions for brighter satellites

Satellite Brightness Start Highest point End
(mag) Time Altitude Azimuth Time Altitude Azimuth Time Altitude Azimuth
USA 234 4.2 20:00:38 10° ENE 20:05:40 23° SE 20:10:40 10° S
SJ 16-02 1.3 20:03:36 10° SSW 20:07:55 88° ESE 20:12:17 10° NNE
Meteor 1-21 4.3 20:03:43 10° S 20:09:31 79° E 20:15:22 10° NNE
Cosmos 1241 Rocket 4.5 20:03:48 10° SSW 20:10:00 85° SE 20:16:18 10° NE
BlueWalker 3 1.8 20:07:00 10° WSW 20:10:45 86° SSE 20:14:31 10° ENE
SL-4 R/B 1.9 20:08:31 10° WNW 20:12:17 69° SSW 20:16:20 10° ESE
MOS 1 Rocket 3.8 20:08:01 10° SSE 20:13:13 58° ENE 20:18:13 10° N
ARGOS Delta rocket 4.0 20:09:50 10° S 20:14:10 64° W 20:18:34 10° NNW
SL-16 R/B 4.5 20:11:30 10° N 20:14:41 15° NNE 20:17:51 10° ENE
Terra 1.9 20:10:10 10° SSE 20:14:50 68° ENE 20:19:32 10° N
Okean-O 3.6 20:11:13 10° S 20:15:27 45° W 20:19:42 10° NNW
Cosmos 2333 Rocket 3.3 20:11:41 10° NW 20:17:03 41° WSW 20:22:23 10° S
Cosmos 2237 Rocket 3.4 20:12:15 10° NNW 20:17:17 31° NE 20:22:17 10° ESE
SL-14 R/B 4.0 20:13:49 10° SSW 20:17:32 55° WNW 20:21:19 10° N
BREEZE-M DEB (TANK) 2.3 20:16:46 10° W 20:18:44 42° SSW 20:21:30 10° SE
COSMOS 2455 3.5 20:13:45 10° S 20:19:05 35° ESE 20:24:29 10° NE
CZ-4C R/B 2.7 20:15:27 10° S 20:19:13 28° ESE 20:23:44 10° ENE
CZ-4C R/B 3.6 20:15:10 10° N 20:19:19 77° WNW 20:23:21 10° SSW
Meteor 1-4 Rocket 2.0 20:16:48 10° S 20:19:47 80° E 20:22:48 10° NNE
Okean 1-7 3.3 20:15:47 10° SSE 20:19:56 49° E 20:24:06 10° NNE
Okean O Rocket 3.9 20:20:22 10° SW 20:23:45 22° W 20:27:09 10° NW
SPOT 5 3.3 20:19:35 10° S 20:23:52 53° W 20:28:20 10° NNW
USA 245 3.9 20:19:41 10° SSE 20:23:59 89° WSW 20:29:22 10° NNW
Cosmos 2227 Rocket 4.1 20:23:15 10° ESE 20:24:20 11° E 20:25:27 10° E
Cosmos 1862 Rocket 3.8 20:20:21 10° SSW 20:24:46 77° W 20:29:15 10° N
Cosmos 1703 Rocket 4.3 20:20:51 10° SSE 20:24:57 37° E 20:29:02 10° NNE
ERS-1 Rocket 3.1 20:23:27 10° S 20:28:28 79° WSW 20:33:32 10° NNW
Cosmos 2228 Rocket 4.0 20:24:46 10° SSW 20:29:13 53° WNW 20:33:43 10° N
Cosmos 1300 4.3 20:27:41 10° NNW 20:30:48 29° W 20:33:54 10° SSW
Okean 3 3.6 20:26:53 10° SSW 20:31:02 79° W 20:35:15 10° N
Cosmos 2322 3.8 20:26:21 10° NNW 20:32:04 86° WSW 20:37:36 11° SSE
Cosmos 1242 Rocket 2.4 20:30:33 10° SSE 20:33:04 39° E 20:35:37 10° NNE
Okean 2 3.3 20:29:27 10° S 20:33:24 66° E 20:37:25 10° NNE
Cosmos 2322 Rocket 4.2 20:30:06 10° NW 20:34:23 22° W 20:38:38 10° SSW
Cosmos 1570 Rocket 4.1 20:31:53 10° NNW 20:37:17 89° ENE 20:42:23 11° SSE
Cosmos 2297 Rocket 3.1 20:37:55 10° SSE 20:42:40 29° ESE 20:47:26 10° NE
Aureole 3 4.4 20:39:08 10° SSW 20:43:45 67° WNW 20:49:34 10° N
Cosmos 2219 Rocket 3.3 20:44:34 10° NW 20:49:49 39° WSW 20:55:02 10° S
NOSS 8 (E) 4.4 20:48:33 10° SW 20:52:33 83° SE 20:55:42 10° NE
BREEZE-M DEB (TANK) 4.0 20:49:37 10° WSW 20:53:54 90° SSE 21:11:43 10° E
Landsat 4 3.7 20:52:02 13° S 20:55:03 66° WSW 20:58:29 10° NNW
ATLAS 2AS CENTAUR R/B 4.3 20:49:54 10° WNW 20:55:04 24° WSW 21:00:07 10° SSW
Cosmos 1455 2.4 20:56:25 10° NNW 20:59:53 58° W 21:02:59 12° S
Spot 2 Rocket 4.1 20:56:57 10° S 21:01:55 55° W 21:06:56 10° NNW
Cosmos 1408 2.9 21:01:32 20° SE 21:03:01 33° E 21:05:46 10° NNE
SPOT 3 Rocket 3.9 20:58:51 10° S 21:03:52 62° WSW 21:09:02 10° NNW
SeaSat 1 2.7 21:08:35 15° SSE 21:12:32 60° WSW 21:17:25 10° NW
Cosmos 1503 Rocket 4.4 21:08:20 14° S 21:12:35 44° ESE 21:17:35 10° NE
Cosmos 1174 4.1 21:12:32 10° NW 21:17:29 74° NE 21:20:11 20° SE
Cosmos 2242 Rocket 4.0 21:14:55 18° SSE 21:18:03 50° E 21:22:29 10° NNE
Cosmos 1709 Rocket 4.3 21:13:28 16° SSE 21:18:28 52° E 21:24:34 10° NNE
Cosmos 1953 3.6 21:15:46 10° NNW 21:19:13 33° W 21:22:39 10° SSW
Cosmos 158 Rocket 4.4 21:14:19 10° NNW 21:19:27 57° WSW 21:23:25 16° S
Cosmos 1908 Rocket 4.4 21:15:23 10° NNW 21:19:30 44° W 21:23:22 11° SSW
COSMOS 2428 3.4 21:15:01 10° NW 21:20:28 47° WSW 21:25:01 15° S
Cosmos 2208 Rocket 4.5 21:16:01 10° NNW 21:21:03 53° WSW 21:25:05 16° S
Cosmos 1782 Rocket 3.6 21:19:13 10° NNW 21:23:33 77° W 21:26:41 18° S
CENTAUR R/B 3.1 21:23:46 18° SSE 21:27:12 33° ESE 21:33:07 10° NE
Ariane Rocket 4.2 21:22:46 10° SSW 21:27:26 36° W 21:32:07 10° NNW
Cosmos 1300 Rocket 3.5 21:24:34 10° NNW 21:28:54 81° W 21:31:51 20° S
Cosmos 1892 4.4 21:29:14 14° ESE 21:30:11 16° E 21:32:21 10° NE
EXPRESS MD2 1.8 21:28:11 10° WNW 21:30:33 64° SSW 21:30:59 47° SE
Cosmos 2084 Rocket 3.3 21:28:16 10° SW 21:32:33 79° SE 21:36:43 10° NE
Cosmos 1486 Rocket 4.1 21:32:42 10° SSW 21:37:53 78° WNW 21:43:08 10° NNE
Cosmos 405 Rocket 3.0 21:38:19 10° N 21:42:02 52° ENE 21:43:50 27° SE
GP-B 3.3 21:39:33 10° N 21:43:58 69° W 21:47:06 18° SSW
ARIANE 5 R/B 2.7 21:41:49 24° SSE 21:44:20 68° ENE 21:48:42 10° N
BREEZE-M DEB (TANK) 3.2 21:41:35 10° WNW 21:45:37 38° N 21:47:41 10° ENE
SJ 16-02 4.3 21:44:38 10° W 21:46:56 14° NW 21:49:14 10° NNW
BlueWalker 3 3.2 21:45:35 10° W 21:49:10 42° N 21:52:45 10° ENE
Cosmos 371 Rocket 3.6 21:44:26 10° SSW 21:49:13 68° WNW 21:54:03 10° NNE
USA 234 3.2 21:42:52 10° ENE 21:49:26 73° SE 21:55:57 10° SW
Cosmos 1378 Rocket 4.3 21:48:07 25° SE 21:50:04 38° E 21:54:10 10° NNE
SL-4 R/B 3.7 21:47:54 10° W 21:50:36 18° SW 21:51:26 17° SSW
Terra 4.1 21:49:57 10° SW 21:52:54 16° W 21:55:52 10° NW
Cosmos 1674 Rocket 4.4 21:52:16 24° SE 21:54:04 35° E 21:58:00 10° NNE
H-2A R/B 3.0 21:56:27 25° SE 21:58:40 51° ENE 22:02:43 10° N
Cosmos 1354 Rocket 4.0 21:55:11 17° SSW 21:59:15 80° ESE 22:04:34 10° NNE
NOSS 8 (A) 4.3 21:56:30 10° NW 21:59:30 70° SW 22:00:43 36° SSE
SL-16 R/B 2.7 21:54:33 10° NNW 22:00:09 54° NE 22:04:11 19° SE
Cosmos 2237 Rocket 2.6 21:56:07 10° NW 22:01:38 54° WSW 22:05:00 23° S
USA 281 3.2 22:00:04 21° SSE 22:04:41 82° ENE 22:11:18 10° NNW
COSMOS 2455 3.6 21:58:57 10° SW 22:04:50 53° NW 22:10:45 10° NNE
CZ-4C R/B 2.8 22:02:34 10° WSW 22:07:08 53° NW 22:12:57 10° NE
Cosmos 2227 Rocket 2.2 22:03:20 20° S 22:07:16 67° ESE 22:12:54 10° NNE
Cosmos 990 Rocket 4.5 22:05:23 26° SSE 22:07:44 43° ESE 22:12:34 10° NE
Meteor 2-5 Rocket 3.8 22:05:17 20° S 22:09:31 88° W 22:15:20 10° NNE
Cosmos 2151 Rocket 3.6 22:07:41 10° N 22:12:05 74° E 22:14:08 31° SSE
Okean 2 Rocket 3.1 22:12:17 10° N 22:16:48 76° E 22:18:55 31° SSE
Cosmos 2297 Rocket 2.9 22:20:53 10° SW 22:26:24 53° NW 22:31:58 10° NNE
ALOS 2 2.8 22:25:43 30° SE 22:27:46 66° ENE 22:32:08 10° N
MINOTAUR 4 R/B 3.9 22:27:50 10° N 22:30:41 56° WNW 22:31:27 40° SW
CZ-2C R/B 4.4 22:29:42 10° N 22:33:59 48° WNW 22:37:07 17° SW
Cosmos 2098 Rocket 4.3 22:28:55 10° NNW 22:35:16 56° W 22:38:52 23° SSW
Cosmos 1461 3.3 22:34:55 36° SE 22:35:27 37° ESE 22:39:04 10° NE
NOSS 3-2 (A) 3.2 22:33:40 26° SSW 22:36:34 59° ESE 22:42:35 10° NE
Cosmos 2074 Rocket 4.0 22:33:33 27° S 22:37:05 70° E 22:43:17 10° NNE
Cosmos 2181 Rocket 4.1 22:32:04 10° NNW 22:38:12 70° W 22:41:46 26° S
Cosmos 2219 3.2 22:37:54 27° S 22:40:59 68° ESE 22:46:35 10° NNE
H-2A R/B 3.3 22:40:39 10° NE 22:44:08 25° E 22:45:13 22° ESE
Cosmos 332 Rocket 4.3 22:41:57 17° SW 22:45:37 57° WNW 22:50:28 10° NNE
Cosmos 1825 2.0 22:44:58 43° SSW 22:45:56 71° W 22:49:22 10° N
Orbus 7S? 4.3 22:43:39 10° NW 22:46:11 32° NNE 22:48:54 10° E
Cosmos 2263 Rocket 2.4 22:44:09 30° S 22:46:43 54° ESE 22:52:09 10° NE
BREEZE-M DEB (TANK) 4.1 22:43:36 10° WNW 22:47:16 84° SSW 22:59:59 10° ESE
NOSS 3-2 (C) 3.9 22:46:16 28° SSE 22:47:56 34° ESE 22:53:18 10° NE
Cosmos 2221 Rocket 3.7 22:46:45 31° SSW 22:48:49 72° W 22:53:15 10° N
Cosmos 1295 Rocket 4.4 22:49:44 28° S 22:53:10 80° E 22:59:21 10° N
Sich 1 Rocket 4.2 22:50:04 10° NNW 22:54:16 46° W 22:56:03 29° SSW
Okean 1 Rocket 3.1 22:51:27 10° NNW 22:55:49 68° W 22:57:31 35° SSW
Cosmos 1538 Rocket 4.2 22:51:19 10° NNW 22:56:28 62° WSW 22:58:51 31° S
TIMED 4.4 22:59:19 37° SSW 23:01:00 80° ESE 23:05:20 10° NNE
Cosmos 1818 3.5 22:56:14 10° NW 23:01:45 78° SW 23:04:38 29° SSE
Cosmos 1844 Rocket 4.5 23:01:41 14° ESE 23:03:42 17° E 23:07:06 10° ENE
Cosmos 1892 3.6 23:03:07 26° WSW 23:04:27 37° WNW 23:07:47 10° N
Cosmos 1937 Rocket 3.8 23:09:52 32° SSE 23:12:02 53° ESE 23:17:07 10° NNE
Cosmos 1025 Rocket 2.9 23:12:05 37° SSW 23:13:44 84° W 23:18:03 10° N
Nadezhda 3 Rocket 4.0 23:08:05 10° NNW 23:14:19 78° W 23:17:41 29° S
Cosmos 1975 Rocket 3.4 23:15:39 35° SSE 23:17:14 55° E 23:21:35 10° NNE
CENTAUR R/B 3.0 23:11:31 10° WSW 23:17:20 61° NW 23:24:37 10° NE
Cosmos 923 Rocket 3.9 23:18:15 10° NNW 23:23:33 80° WSW 23:26:02 32° SSE
Cosmos 1455 Rocket 3.0 23:20:35 10° NNW 23:25:02 79° W 23:26:44 38° S
BlueWalker 3 2.8 23:24:08 10° WNW 23:27:47 50° NNE 23:31:27 10° E
Cosmos 1898 Rocket 3.4 23:25:20 30° SSW 23:27:56 87° WNW 23:33:08 10° NNE
In-Cosmos 22 Rocket 4.4 23:25:38 30° S 23:28:36 71° E 23:34:25 10° NNE
Aureole 1 Rocket 3.4 23:26:54 29° SW 23:28:55 62° WNW 23:34:03 10° NNE
Meteor 1-21 Rocket 4.2 23:27:44 29° SSW 23:30:46 79° WNW 23:36:26 10° N
Cosmos 1869 3.7 23:27:30 10° N 23:31:07 49° ENE 23:32:26 33° SE
USA 234 4.0 23:25:58 10° NE 23:32:19 55° NNW 23:38:39 10° W
H-2A R/B 4.4 23:32:26 16° WSW 23:33:50 18° W 23:36:46 10° NW
Cosmos 2327 Rocket 4.4 23:38:10 28° SSW 23:41:33 82° W 23:47:44 10° N
SL-16 R/B 3.3 23:39:09 10° NW 23:43:58 29° WSW 23:46:02 23° SW
Cosmos 2228 3.7 23:41:21 10° N 23:45:33 48° ENE 23:47:43 25° SE
SL-8 Rocket 4.0 23:46:22 28° S 23:49:50 73° E 23:56:03 10° NNE
Cosmos 1603 3.8 23:44:07 10° NNW 23:49:55 76° ENE 23:54:09 19° SE
Cosmos 1943 3.1 23:45:13 10° NNW 23:50:50 72° WSW 23:53:53 28° SSE
Cosmos 2227 Rocket 4.0 23:47:01 10° WSW 23:51:47 27° NW 23:56:35 10° NNE
Cosmos 1867 3.8 23:50:23 31° S 23:52:50 57° ESE 23:58:13 10° NE
PSLV R/B 4.4 23:48:58 10° N 23:52:53 40° WNW 23:54:55 24° WSW
Meteor 2-1 Rocket 4.3 23:47:38 10° NNW 23:53:29 74° W 23:56:33 29° S
Helios 1A Rocket 4.0 23:52:13 18° SE 23:54:32 35° ENE 23:58:02 10° N
